Location: Unspecified
(0.0000°N, 0.0000°E)
Time: 03:35:07
(UTC+00:00)

N. Korean satellite - Pass Details

Date: 19 October 2017
Orbit: 461 x 513 km, 97.2° (Epoch: 15 December)

Event Time Altitude Azimuth Distance (km) Brightness Sun altitude
Rises 18:07:06 0° 157° (SSE) 2,587 10.1 -5.5°
Reaches altitude 10° 18:09:17 10° 150° (SSE) 1,692 9.1 -6.0°
Maximum altitude 18:12:42 40° 79° (E) 736 7.0 -6.8°
Drops below altitude 10° 18:16:03 10° 9° (N) 1,654 9.1 -7.7°
Sets 18:18:10 0° 1° (N) 2,520 10.1 -8.2°
